Weather History for Fort Campbell, KY

Change the Weather History Date:

Sunday, May 20, 2012

  Actual Average Record
Temperature  
Mean Temperature 74 °F -  
Max Temperature 89 °F 76 °F 93 °F (1998)
Min Temperature 60 °F 56 °F 45 °F (2007)
Cooling Degree Days 9    
Growing Degree Days 24 (Base 50)    
Moisture  
Dew Point 63 °F    
Average Humidity 73    
Maximum Humidity 100    
Minimum Humidity 37    
Precipitation  
Precipitation 0.57 in - - ()
Sea Level Pressure  
Sea Level Pressure 30.08 in    
Wind  
Wind Speed 5 mph (WNW)    
Max Wind Speed 24 mph    
Max Gust Speed 32 mph    
Visibility 7 miles    
Events Rain , Thunderstorm    
Averages and records for this station are not official NWS values.
T = Trace of Precipitation, MM = Missing Value Source: NWS Daily Summary

Daily Weather History Graph

Daily Weather History Graph

Search for Another Location

Airport:

Trip Planner

Search our weather history database for the weather conditions in past years. The results will help you decide how hot, cold, wet, or windy it might be!

Date:

Astronomy

May. 20, 2012 Rise Set
Actual Time 5:38 AM CDT 7:54 PM CDT
Civil Twilight 5:09 AM CDT 8:24 PM CDT
Nautical Twilight 4:33 AM CDT 9:00 PM CDT
Astronomical Twilight 3:54 AM CDT 9:39 PM CDT
Moon 5:18 AM CDT (5/20) 7:53 PM CDT (5/20)
Length of Visible Light 15h 14m
Length of Day
14h 16m
Waning Crescent, 0% of the Moon is Illuminated
May 20
Waning Crescent
May 20
New
May 28
First Quarter
Jun 4
Full
Jun 11
Last Quarter

Hourly Weather History & Observations

Time (CDT) Temp. Heat Index Dew Point Humidity Pressure Visibility Wind Dir Wind Speed Gust Speed Precip Events Conditions
12:55 AM 64.4 °F - 62.8 °F 94% 30.07 in 10.0 mi Calm Calm - N/A   Clear
1:55 AM 65.8 °F - 62.8 °F 90% 30.09 in 10.0 mi Calm Calm - N/A   Clear
2:25 AM 66.2 °F - 62.6 °F 88% 30.08 in 8.0 mi Calm Calm - N/A   Clear
2:30 AM 66.2 °F - 62.6 °F 88% 30.09 in 8.0 mi Calm Calm - N/A   Clear
2:55 AM 63.0 °F - 62.8 °F 99% 30.09 in 10.0 mi Calm Calm - N/A   Clear
3:55 AM 62.4 °F - 62.4 °F 100% 30.10 in 10.0 mi Calm Calm - N/A   Clear
4:55 AM 60.4 °F - 60.4 °F 100% 30.11 in 10.0 mi Calm Calm - N/A   Clear
5:55 AM 61.5 °F - 61.5 °F 100% 30.13 in 10.0 mi Calm Calm - N/A   Clear
6:55 AM 64.4 °F - 64.4 °F 100% 30.14 in 10.0 mi Calm Calm - N/A   Clear
7:55 AM 69.8 °F - 65.1 °F 85% 30.15 in 10.0 mi Calm Calm - N/A   Clear
8:55 AM 76.6 °F - 61.0 °F 58% 30.14 in 10.0 mi Calm Calm - N/A   Clear
9:54 AM 82.4 °F 83.9 °F 64.4 °F 54% 30.13 in 10.0 mi Variable 4.6 mph - N/A   Light Drizzle
9:55 AM 81.7 °F 83.5 °F 65.1 °F 57% 30.13 in 10.0 mi West 5.8 mph - 0.00 in   Light Drizzle
9:58 AM 82.4 °F 83.9 °F 64.4 °F 54% 30.13 in 10.0 mi West 6.9 mph - N/A   Clear
9:59 AM 82.4 °F 83.9 °F 64.4 °F 54% 30.13 in 10.0 mi WNW 6.9 mph - N/A   Light Drizzle
10:55 AM 84.9 °F 85.9 °F 63.3 °F 48% 30.13 in 10.0 mi West 4.6 mph - 0.00 in   Light Drizzle
11:35 AM 86.0 °F 86.6 °F 62.6 °F 45% 30.12 in 10.0 mi West 3.5 mph - N/A   Clear
11:55 AM 86.2 °F 86.3 °F 61.5 °F 43% 30.12 in 10.0 mi Variable 3.5 mph - 0.00 in   Clear
12:55 PM 87.1 °F 86.7 °F 60.3 °F 40% 30.10 in 10.0 mi SW 6.9 mph - N/A   Partly Cloudy
1:55 PM 88.5 °F 88.3 °F 60.8 °F 39% 30.08 in 10.0 mi West 9.2 mph - N/A   Clear
2:55 PM 87.1 °F 86.1 °F 57.6 °F 37% 30.06 in 10.0 mi Calm Calm - N/A   Clear
3:55 PM 86.2 °F 86.6 °F 61.7 °F 44% 30.04 in 10.0 mi South 4.6 mph - N/A   Mostly Cloudy
4:55 PM 86.7 °F 86.1 °F 59.4 °F 39% 30.02 in 10.0 mi Calm Calm - N/A   Clear
5:55 PM 84.0 °F 84.5 °F 61.7 °F 47% 30.01 in 10.0 mi South 6.9 mph - N/A   Mostly Cloudy
6:55 PM 82.4 °F 83.2 °F 62.1 °F 50% 30.01 in 10.0 mi South 6.9 mph - N/A Thunderstorm Partly Cloudy
7:55 PM 79.2 °F - 63.9 °F 59% 30.02 in 10.0 mi SW 4.6 mph - N/A   Clear
8:55 PM 77.0 °F - 65.1 °F 67% 30.03 in 10.0 mi NNW 4.6 mph - N/A   Partly Cloudy
9:53 PM 75.2 °F - 60.8 °F 61% 30.06 in 10.0 mi WNW 13.8 mph 20.7 mph N/A   Light Drizzle
9:55 PM 74.7 °F - 60.8 °F 62% 30.06 in 10.0 mi WNW 13.8 mph 23.0 mph 0.00 in   Light Drizzle
10:01 PM 73.4 °F - 60.8 °F 65% 30.07 in 4.0 mi WNW 16.1 mph 24.2 mph N/A Rain , Thunderstorm Thunderstorms and Rain
10:03 PM 71.6 °F - 62.6 °F 73% 30.06 in 2.5 mi WNW 24.2 mph 32.2 mph N/A Rain , Thunderstorm Thunderstorms and Rain
10:06 PM 71.6 °F - 62.6 °F 73% 30.06 in 1.8 mi WNW 19.6 mph 32.2 mph N/A Rain , Thunderstorm Heavy Thunderstorms and Rain
10:07 PM 69.8 °F - 62.6 °F 78% 30.06 in 1.5 mi WNW 17.3 mph 32.2 mph N/A Rain , Thunderstorm Heavy Thunderstorms and Rain
10:08 PM 69.8 °F - 64.4 °F 83% 30.06 in 1.5 mi WNW 16.1 mph 32.2 mph N/A Rain , Thunderstorm Heavy Thunderstorms and Rain
10:09 PM 69.8 °F - 64.4 °F 83% 30.06 in 1.2 mi WNW 17.3 mph 32.2 mph N/A Rain , Thunderstorm Heavy Thunderstorms and Rain
10:11 PM 69.8 °F - 64.4 °F 83% 30.06 in 1.5 mi WNW 13.8 mph 32.2 mph N/A Rain , Thunderstorm Heavy Thunderstorms and Rain
10:19 PM 68.0 °F - 64.4 °F 88% 30.06 in 1.5 mi WNW 17.3 mph 23.0 mph N/A Rain , Thunderstorm Heavy Thunderstorms and Rain
10:22 PM 68.0 °F - 64.4 °F 88% 30.05 in 2.0 mi West 15.0 mph 23.0 mph N/A Rain , Thunderstorm Heavy Thunderstorms and Rain
10:23 PM 68.0 °F - 64.4 °F 88% 30.05 in 2.0 mi West 16.1 mph 23.0 mph N/A Rain , Thunderstorm Heavy Thunderstorms and Rain
10:28 PM 68.0 °F - 66.2 °F 94% 30.06 in 2.5 mi WNW 15.0 mph 23.0 mph N/A Rain Heavy Rain
10:31 PM 68.0 °F - 66.2 °F 94% 30.06 in 3.0 mi WNW 10.4 mph 23.0 mph N/A Rain Heavy Rain
10:33 PM 68.0 °F - 66.2 °F 94% 30.06 in 3.0 mi WNW 11.5 mph 23.0 mph N/A Rain Heavy Rain
10:51 PM 68.0 °F - 64.4 °F 88% 30.07 in 4.0 mi Variable 4.6 mph - N/A Rain , Thunderstorm Heavy Rain
10:55 PM 67.5 °F - 65.1 °F 92% 30.07 in 4.0 mi Variable 4.6 mph - 0.54 in Rain , Thunderstorm Heavy Rain
11:13 PM 68.0 °F - 64.4 °F 88% 30.09 in 8.0 mi Variable 4.6 mph - N/A Rain , Thunderstorm Light Rain
11:38 PM 68.0 °F - 64.4 °F 88% 30.09 in 10.0 mi NNE 3.5 mph - N/A   Mostly Cloudy
11:55 PM 67.3 °F - 64.8 °F 92% 30.09 in 10.0 mi Variable 3.5 mph - 0.03 in Thunderstorm Mostly Cloudy